www.pogodaiklimat.ru

Погода и климат >> Архив погоды >> Индонезия >> Купанг


ПОГОДА в Купанге

  • Прогноз погоды в Купанге
  • Монитор погоды в Купанге

АРХИВ ПОГОДЫ в Купанге

Время (UTC), дата Ветер
(напр.,м/с)
 
Видим.   Явления Облачность Т
(С)
Тd
(С)
f
(%)
Тe
(С)
Тes
(С)
Комфортность P
(гПа)
Po
(гПа)
Тmin
(С)
Tmax
(С)
R
(мм)
R24
(мм)
S
(см)
21 8.06 ЮВ 5 5000 м 4/1 540 м
[Cu hum Ci fib]
+24.0 +21.1 84 +30 +30 очень
душно
1012.4 1000.2
00 9.06 В 5 6000 м 6/1 540 м
[Cu hum Cs]
+26.4 +22.9 81 +35 +37 очень
душно
1014.3 1002.1 +23.4
03 9.06 В 6 7000 м 6/3 540 м
[Cu hum Ac trans Ci sp]
+30.8 +23.7 66 +42 +45 опасность
перегрева
1013.7 1001.5
06 9.06 В 6 9000 м 3/3 540 м
[Cu hum Ci fib]
+32.0 +24.3 64 +44 +48 опасность
перегрева
1011.7 999.5
09 9.06 ЮВ 6 9000 м 3/3 540 м
[Cu hum Ci fib]
+28.4 +23.9 77 +39 +39 очень
душно
1012.2 1000.0
12 9.06 В 5 8000 м 5/4 540 м
[Cu hum As trans Ci fib]
+26.0 +23.8 88 +36 +36 очень
душно
1014.1 1001.9 +32.4
15 9.06 ЮВ 5 8000 м 5/4 540 м
[Cu hum As trans Ci fib]
+25.4 +23.5 89 +34 +34 очень
душно
1013.8 1001.6
18 9.06 В 3 8000 м 3/3 540 м
[Cu hum Ci fib]
+25.2 +23.8 92 +34 +34 очень
душно
1011.6 999.4
21 9.06 ЮВ 3 8000 м 3/3 540 м
[Cu hum Ci fib]
+24.8 +23.7 94 +34 +34 очень
душно
1011.6 999.4
00 10.06 В 6 9000 м 3/1 540 м
[Cu hum Ci fib]
+26.9 +22.3 76 +35 +36 очень
душно
1012.5 1000.3 +24.6
03 10.06 В 9 9000 м 4/4 540 м
[Cu hum Ci fib]
+31.6 +22.9 60 +42 +42 опасность
перегрева
1011.6 999.4
06 10.06 В 8 8000 м 3/1 540 м
[Cu hum Ci fib]
+31.8 +21.1 53 +39 +41 очень
душно
1009.3 997.2
09 10.06 ЮВ 4 8000 м 4/3 540 м
[Cu hum Ac trans Ci fib]
+29.2 +23.1 70 +39 +39 очень
душно
1010.1 997.9
12 10.06 ЮВ 5 8000 м 3/1 600 м
[Cu hum Ci fib]
+26.2 +22.7 81 +35 +35 очень
душно
1012.6 1000.4 +32.6
15 10.06 ЮВ 6 8000 м 3/1 600 м
[Cu hum Ci fib]
+25.5 +22.9 86 +34 +34 очень
душно
1013.1 1001.2
18 10.06 ЮВ 3 8000 м 3/1 600 м
[Cu hum Ci fib]
+24.6 +22.4 88 +32 +32 очень
душно
1012.6 1000.4
21 10.06 ЮВ 3 8000 м 3/1 600 м
[Cu hum Ci fib]
+24.0 +21.9 88 +31 +31 очень
душно
1012.7 1000.5
00 11.06 ЮВ 5 10 км 4/1 600 м
[Cu hum Ci fib]
+26.6 +22.8 80 +35 +37 очень
душно
1014.6 1002.3 +23.7
03 11.06 В 8 10 км 5/3 540 м
[Cu hum Ci fib]
+31.0 +23.2 63 +41 +43 опасность
перегрева
1013.8 1001.6
06 11.06 В 6 10 км 4/1 540 м
[Cu hum Ci sp]
+32.5 +23.9 61 +44 +48 опасность
перегрева
1011.5 999.3
09 11.06 З 3 10 км 9/9 480 м
[Cu Sc Ci sp]
+28.9 +23.4 72 +39 +39 очень
душно
1012.8 1000.6
12 11.06 ЮВ 4 8000 м 9/8 500 м
[Cu med, cong Ci fib]
+27.0 +23.8 83 +37 +37 очень
душно
1014.2 1001.9 +33.0
15 11.06 ЮВ 3 8000 м 9/8 500 м
[Cu med, cong Ci fib]
+26.6 +24.1 86 +37 +37 очень
душно
1014.6 1002.3
18 11.06 ЮВ 3 8000 м слаб. дождь 6/6 500 м
[Cu med, cong Ci fib]
+26.2 +24.3 89 +36 +36 очень
душно
1013.4 1001.2
21 11.06 В 3 8000 м {дождь} 6/5 500 м
[Cu med, cong Ci fib]
+25.2 +24.0 93 +35 +35 очень
душно
1013.7 1001.4 0.0
00 12.06 В 4 8000 м {дождь} 6/3 480 м
[Cu hum Ac As Ci fib]
+26.5 +23.3 83 +36 +37 очень
душно
1014.8 1002.6 +24.6 0.0
03 12.06 В 7 8000 м 9/4 540 м
[Cu hum Ac trans Ci fib]
+30.4 +23.6 67 +41 +43 опасность
перегрева
1014.3 1002.1
06 12.06 ЮВ 8 9000 м 9/4 540 м
[Cu hum Ac trans Ci fib]
+30.5 +23.7 67 +42 +42 опасность
перегрева
1011.8 999.6
09 12.06 В 7 9000 м 9/3 540 м
[Cu hum Ac trans Ci fib]
+29.1 +23.6 72 +40 +40 очень
душно
1011.6 999.4
12 12.06 В 4 7000 м 9/3 540 м
[Cu hum Ac As Ci fib]
+27.2 +23.6 81 +37 +37 очень
душно
1013.2 1001.0 +30.6
15 12.06 ЮВ 3 7000 м 8/3 540 м
[Cu hum Ac As Ci sp]
+27.0 +24.0 84 +37 +37 очень
душно
1013.4 1001.2
18 12.06 В 5 7000 м 8/3 540 м
[Cu hum Ac trans Ci sp]
+26.2 +23.1 83 +35 +35 очень
душно
1012.0 999.9
21 12.06 ЮВ 5 7000 м 8/3 540 м
[Cu hum Ac trans Ci sp]
+25.4 +23.0 87 +34 +34 очень
душно
1012.3 1000.3
00 13.06 В 6 7000 м 9/4 540 м
[Cu hum Ac trans Ci sp]
+27.8 +23.7 78 +38 +38 очень
душно
1014.3 1002.1 +25.2
03 13.06 В 8 6000 м 9/5 540 м
[Cu hum Ac As Ci sp]
+30.0 +24.0 70 +41 +42 опасность
перегрева
1013.9 1001.7
06 13.06 В 6 8000 м 9/5 540 м
[Cu hum Ac As Ci fib]
+30.7 +24.2 68 +43 +44 опасность
перегрева
1010.6 998.4
09 13.06 В 4 8000 м 8/3 540 м
[Cu hum Ac As Ci fib]
+28.7 +22.9 71 +38 +38 очень
душно
1011.1 998.9
12 13.06 ЮВ 2 8000 м 8/3 540 м
[Cu hum Ac trans Ci fib]
+25.7 +21.7 79 +33 +33 очень
душно
1013.5 1001.3 +30.7
15 13.06 В 3 8000 м 8/3 540 м
[Cu hum Ac trans Ci fib]
+24.7 +20.8 79 +31 +31 очень
душно
1013.9 1001.7
18 13.06 ЮВ 3 8000 м 4/1 540 м
[Cu hum Ac trans Ci fib]
+24.0 +20.7 82 +30 +30 очень
душно
1012.8 1000.6
21 13.06 ЮВ 3 8000 м 3/1 540 м
[Cu hum Ac trans Ci fib]
+23.2 +20.9 87 +31 +31 очень
душно
1012.9 1000.7
00 14.06 ЮВ 6 10 км 3/1 540 м
[Cu hum As trans Ci fib]
+26.2 +21.1 74 +33 +34 очень
душно
1014.1 1001.8 +22.6
03 14.06 В 8 10 км 3/1 540 м
[Cu hum As trans Ci fib]
+31.0 +22.1 59 +40 +42 очень
душно
1013.0 1000.7
06 14.06 В 8 10 км 3/1 600 м
[Cu hum Ci fib]
+32.1 +21.5 54 +40 +42 очень
душно
1010.1 997.9
09 14.06 В 5 10 км 1/1 600 м
[Cu hum Ci fib]
+29.8 +21.0 59 +37 +37 очень
душно
1010.5 998.4
12 14.06 ЮВ 5 8000 м 1/1 600 м
[Cu hum Ci fib]
+25.2 +20.6 76 +31 +31 очень
душно
1013.3 1001.1 +32.1
15 14.06 В 5 8000 м 1/1 600 м
[Cu hum Ci fib]
+24.3 +21.3 83 +31 +31 очень
душно
1014.0 1001.8
18 14.06 ЮВ 2 8000 м 1/1 600 м
[Cu hum Ci fib]
+23.0 +20.7 87 +30 +30 очень
душно
1012.9 1000.7
21 14.06 ЮВ 4 8000 м 1/1 600 м
[Cu hum Ci fib]
+22.2 +19.6 85 +28 +28 душно 1013.0 1000.9
00 15.06 В 6 10 км 1/1 600 м
[Cu hum Ci fib]
+25.5 +21.7 80 +33 +34 очень
душно
1015.2 1002.9 +22.2
03 15.06 В 7 10 км 1/1 600 м
[Cu hum Ci fib]
+30.8 +21.4 57 +39 +42 очень
душно
1014.2 1001.9
06 15.06 В 12 10 км 3/1 600 м
[Cu hum Ci fib]
+31.2 +20.7 54 +38 +38 очень
душно
1011.4 999.2
09 15.06 ЮВ 8 10 км 3/1 600 м
[Cu hum Ci fib]
+29.2 +21.9 65 +38 +38 очень
душно
1011.7 999.5
12 15.06 В 4 8000 м 3/1 600 м
[Cu hum Ci fib]
+24.4 +21.1 82 +31 +31 очень
душно
1013.5 1001.3 +31.4
15 15.06 В 4 8000 м 3/1 600 м
[Cu hum Ci fib]
+23.2 +20.6 85 +31 +31 очень
душно
1014.1 1001.9
18 15.06 В 3 8000 м 3/1 600 м
[Cu hum Ci fib]
+22.8 +20.2 85 +29 +29 очень
душно
1013.5 1001.2

 

Местоположение метеостанции Купанг (Индонезия): широта -10.16 долгота 123.66 высота над уровнем моря 108 м.

В архиве по умолчанию представлена погода в Купанге за последнюю неделю. Архивные данные за месяц целиком и за предыдущие месяцы, начиная с января 2011 года, Вы можете получить, выбрав интересующий диапазон дат из раскрывающегося списка и нажав кнопку "Ввод!".


*Определитесь, кто Вы:
робот инопланетянин человек

Внимание! Время в таблицах - всемирное. Для получения местного времени необходимо прибавить поправку, которая равна 8 ч.

Смотрите также архив погоды в соседних городах и на ближайших метеорологических станциях:

Погода на Роти (Индонезия) (90 км)
Погода в Сабу (Индонезия) (204 км)
Погода в Ларантуке (Индонезия) (223 км)
Погода в Маумере (Индонезия) (230 км)
Погода на Алоре (Индонезия) (237 км)
Погода в Аэропорту Умбу Механг Кунда (Индонезия) (369 км)
Погода в Рутенге (Индонезия) (391 км)
Погода на Острове Брауз (Западная Австралия, Австралия) (440 км)
Погода на Острове Троутон (Западная Австралия, Австралия) (483 км)
Погода в Трускотте (Западная Австралия, Австралия) (527 км)

Пояснения к столбцам:

Ветер - указаны скорость ветра в м/с - средняя за 10 мин, порывы в срок и между сроками (в фигурных скобках) и направление, откуда дует ветер: С - северный, СВ - северо-восточный, В - восточный, ЮВ - юго-восточный, Ю - южный, ЮЗ - юго-западный, З - западный, СЗ - северо-западный.
Видимость - горизонтальная дальность видимости в метрах или километрах. При видимости от 1 до 10 км при отсутствии осадков обычно наблюдается дымка, при ухудшении видимости до 1 км и менее - туман. В сухую погоду видимость может ухудшаться дымом, пылью или мглою.
Явления - указаны атмосферные явления, наблюдавшиеся в срок или в последний час перед сроком; фигурными скобками обозначены явления, наблюдавшиеся между сроками (за 1-3 часа до срока); квадратными скобками обозначены град или гололедные отложения с указанием их диаметра в мм.
Облачность - указаны через наклонную черту общая и нижняя облачность в баллах и высота нижней границы облаков в метрах; квадратными скобками обозначены формы облаков: Ci - перистые, Cs - перисто-слоистые, Cc - перисто-кучевые, Ac - высококучевые, As - высокослоистые, Sc - слоисто-кучевые, Ns - слоисто-дождевые, Cu - кучевые, Cb - кучево-дождевые. Подробнее классификацию облаков см. в Атласе облаков (PDF).
T - Температура воздуха - температура, измеренная на высоте 2 м над землей.
Td - Температура точки росы - температура, при понижении до которой содержащийся в воздухе водяной пар достигнет насыщения.
f - Относительная влажность воздуха - влажноcть воздуха, измеренная на высоте 2 м над землей.
Te - Эффективная температура - температура, которую ощущает одетый по сезону человек в тени. Характеристика душности погоды. При расчете учитывается влияние влажности воздуха и скорости ветра на теплоощущения человека.
Tes - Эффективная температура на солнце - температура, которую ощущает человек, с поправкой на солнечный нагрев. Характеристика знойности погоды. Зависит от высоты солнца над горизонтом, облачности и скорости ветра. Ночью, в пасмурную погоду, а также при ветре 12 м/с и более поправка равна нулю.
P - Атмосферное давление - приведенное к уровню моря атмосферное давление.
Po - Атмосферное давление - измеренное на уровне метеостанции атмосферное давление.
Tmin - Минимальная температура - минимум температуры воздуха на высоте 2 м над землей.
Tmax - Максимальная температура - максимум температуры воздуха на высоте 2 м над землей.
R - Количество осадков - Количество выпавших осадков за период времени, мм. При наведении курсора мыши на число - период времени, за который выпало указанное количество осадков.
R24 - Количество осадков - Количество выпавших осадков за 24 часа, мм.
S - Снежный покров - Высота снежного покрова, см. При наведении курсора мыши на число - состояние снежного покрова и степень покрытия местности в баллах.